Flag for Ukraine Weather past 2 weeks in Kyiv, Ukraine

Now
37 °F

Sunny.


Feels Like: 33 °F
Forecast: 28 / 38 °F
Wind: 6 mph from East

Location: Kyiv

Current Time: Feb 1, 2015 at 3:58:25 PM

Latest Report: Feb 1, 2015 at 3:30 PM


Visibility: 10 mi

Pressure: 29.39 "Hg

Humidity: 65%

Dew point: 27 °F

Location of KyivLocation

Historic Weather in Kyiv — Graph

°F

Kyiv temperature yesterday

Maximum temperature yesterday: 46 °F (at 10:00 AM)
Minimum temperature yesterday: 34 °F (at 11:30 PM)
Average temperature yesterday: 43 °F

Past Weeks' High & Low Weather Summary

 TemperatureHumidityPressure
High46 °F (Jan 31, 10:00 AM)100% (Jan 17, 3:00 PM)30.27 "Hg (Jan 17, 3:00 PM)
Low25 °F (Jan 25, 6:00 AM)56% (Feb 1, 1:30 PM)28.94 "Hg (Jan 31, 2:30 PM)
Average33 °F95%29.93 "Hg
* Reported Jan 17 3:00 PM — Feb 1 3:00 PM, Kyiv, Weather by CustomWeather, © 2014

Note: Actual official high and low records may vary slightly from our data, if they occured in-between our weather recording intervals... More about our weather records

Advertising

Kyiv weather history for previous 24 hours

 ConditionsComfort  
Time TempWeatherWind HumidityBarometerVisibility
3:00 PM
Feb 1
39 °FSunny.6 mph61%29.39 "Hg10 mi
2:30 PM39 °FSunny.6 mph61%29.39 "Hg10 mi
2:00 PM39 °FSunny.3 mph56%29.39 "Hg10 mi
1:30 PM39 °FSunny.1 mph56%29.39 "Hg10 mi
1:00 PM39 °FSunny.1 mph61%29.42 "Hg10 mi
12:30 PM39 °FPassing clouds.3 mph61%29.42 "HgN/A
12:00 PM37 °FPassing clouds.3 mph70%29.42 "HgN/A
11:30 AM37 °FPassing clouds.3 mph65%29.45 "HgN/A
11:00 AM36 °FSunny.1 mph75%29.45 "Hg10 mi
10:30 AM36 °FSunny.1 mph70%29.45 "Hg10 mi
10:00 AM34 °FSunny.1 mph75%29.45 "Hg10 mi
9:30 AM34 °FPassing clouds.3 mph75%29.45 "HgN/A
9:00 AM32 °FPassing clouds.3 mph80%29.45 "HgN/A
8:30 AM30 °FPassing clouds.6 mph86%29.45 "HgN/A
8:00 AM30 °FPassing clouds.6 mph80%29.42 "HgN/A
7:30 AM30 °FClear.8 mph80%29.42 "Hg10 mi
7:00 AM30 °FClear.8 mph80%29.42 "Hg10 mi
6:30 AM30 °FClear.8 mph86%29.42 "Hg10 mi
6:00 AM30 °FClear.8 mph80%29.39 "Hg10 mi
5:30 AM30 °FPassing clouds.8 mph86%29.39 "HgN/A
5:00 AM30 °FClear.8 mph86%29.39 "Hg10 mi
4:30 AM30 °FClear.6 mph86%29.39 "Hg10 mi
4:00 AM30 °FClear.8 mph86%29.39 "Hg10 mi
3:30 AM32 °FPassing clouds.6 mph80%29.39 "HgN/A
3:00 AM32 °FPassing clouds.6 mph80%29.39 "HgN/A
2:30 AM32 °FClear.8 mph80%29.36 "Hg10 mi
2:00 AM32 °FClear.8 mph80%29.36 "Hg10 mi
1:30 AM32 °FClear.10 mph80%29.36 "Hg10 mi
1:00 AM32 °FClear.10 mph80%29.36 "Hg10 mi
12:30 AM34 °FClear.10 mph75%29.33 "Hg10 mi
12:00 AM34 °FClear.13 mph81%29.30 "Hg10 mi
11:30 PM
Jan 31
34 °FPassing clouds.13 mph81%29.30 "HgN/A
11:00 PM36 °FPassing clouds.15 mph81%29.27 "HgN/A
10:30 PM36 °FPassing clouds.15 mph81%29.24 "HgN/A
10:00 PM37 °FPartly cloudy.15 mph81%29.21 "HgN/A
9:30 PM37 °FClear.13 mph75%29.18 "Hg10 mi
9:00 PM37 °FClear.15 mph75%29.15 "Hg10 mi
8:30 PM39 °FClear.15 mph81%29.12 "Hg10 mi
8:00 PM39 °FPassing clouds.10 mph87%29.09 "HgN/A
7:30 PM39 °FSprinkles. Partly cloudy.20 mph87%29.06 "HgN/A
7:00 PM43 °FSprinkles. Partly cloudy.8 mph93%29.00 "HgN/A
6:30 PM41 °FLight rain. Mostly cloudy.8 mph100%29.00 "HgN/A
6:00 PM41 °FSprinkles. Mostly cloudy.8 mph93%28.97 "HgN/A
5:30 PM43 °FSprinkles. Mostly cloudy.15 mph87%28.97 "HgN/A
5:00 PM45 °FSprinkles. Mostly cloudy.10 mph93%28.94 "Hg4 mi
4:30 PM45 °FSprinkles. Mostly cloudy.6 mph100%28.94 "HgN/A
4:00 PM45 °FSprinkles. Mostly cloudy.6 mph100%28.94 "Hg6 mi
3:30 PM45 °FSprinkles. Mostly cloudy.8 mph93%28.94 "HgN/A
3:00 PM46 °FSprinkles. Mostly cloudy.10 mph87%28.94 "HgN/A
Weather by CustomWeather, © 2014

See weather overviewHow to use our weather pages